Home > Weather > Mazari Sharif > Past weeks

Flag for Afghanistan Past Weather in Mazari Sharif, Afghanistan — Yesterday and Last 2 Weeks

Now
68 °F

Clear.


Feels Like: 68 °F
Forecast: 74 / 97 °F
Wind: 6 mph from Southwest

Location: Termez Airport

Current Time: Aug 29, 2016 at 4:52:53 AM

Latest Report: Aug 29, 2016 at 3:30 AM


Visibility: 10 mi

Pressure: 29.80 "Hg

Humidity: 33%

Dew Point: 37 °F

Location of Mazari SharifLocation

Past Weather in Mazari Sharif — Graph

°F

Mazari Sharif Temperature Yesterday

Maximum temperature yesterday: 97 °F (at 1:30 PM)
Minimum temperature yesterday: 61 °F (at 5:30 AM)
Average temperature yesterday: 82 °F

High & Low Weather Summary for the Past Weeks

 TemperatureHumidityPressure
High100 °F (Aug 14, 1:30 PM)73% (Aug 21, 5:30 AM)29.95 "Hg (Aug 21, 5:30 AM)
Low61 °F (Aug 28, 5:30 AM)8% (Aug 14, 1:30 PM)29.59 "Hg (Aug 14, 3:30 PM)
Average82 °F27%29.76 "Hg
* Reported Aug 14 3:30 AM — Aug 29 3:30 AM, Mazari Sharif, Weather by CustomWeather, © 2016

Note: Actual official high and low records may vary slightly from our data, if they occured in-between our weather recording intervals... More about our weather records

Advertising

Mazari Sharif Weather History for the Previous 24 Hours

Scroll right to see more
 ConditionsComfort  
Time TempWeatherWind HumidityBarometerVisibility
3:30 AM
Mon, Aug 29
68 °FClear.6 mph33%29.80 "Hg10 mi
2:30 AM70 °FClear.1 mph38%29.80 "Hg10 mi
1:30 AM72 °FClear.3 mph36%29.80 "Hg10 mi
12:30 AM72 °FClear.5 mph44%29.80 "Hg10 mi
11:30 PM
Sun, Aug 28
73 °FClear.2 mph36%29.80 "Hg10 mi
10:30 PM79 °FClear.6 mph34%29.80 "Hg10 mi
10:00 PM81 °FClear.6 mph23%29.80 "Hg10 mi
9:30 PM81 °FClear.6 mph23%29.80 "Hg10 mi
9:00 PM82 °FClear.5 mph23%29.80 "Hg10 mi
8:30 PM82 °FClear.5 mph26%29.80 "Hg10 mi
8:00 PM82 °FClear.3 mph28%29.80 "Hg10 mi
7:30 PM86 °FClear.2 mph25%29.80 "Hg10 mi
7:00 PM86 °FClear.No wind27%29.80 "Hg10 mi
6:30 PM86 °FSunny.5 mph27%29.77 "Hg10 mi
6:00 PM90 °FSunny.6 mph22%29.77 "Hg10 mi
5:30 PM93 °FSunny.7 mph14%29.77 "Hg10 mi
5:00 PM95 °FSunny.7 mph14%29.77 "Hg10 mi
4:30 PM95 °FPassing clouds.8 mph13%29.80 "HgN/A
4:00 PM97 °FSunny.8 mph11%29.80 "Hg10 mi
3:30 PM97 °FSunny.9 mph11%29.80 "Hg10 mi
3:00 PM97 °FPassing clouds.8 mph12%29.83 "HgN/A
2:30 PM97 °FPassing clouds.7 mph11%29.83 "HgN/A
1:30 PM97 °FPassing clouds.6 mph13%29.86 "HgN/A
1:00 PM95 °FPassing clouds.7 mph13%29.86 "HgN/A
12:30 PM93 °FPassing clouds.8 mph15%29.86 "HgN/A
12:00 PM91 °FPassing clouds.6 mph20%29.89 "HgN/A
11:30 AM91 °FPassing clouds.6 mph16%29.89 "HgN/A
11:00 AM90 °FPassing clouds.6 mph17%29.89 "HgN/A
10:30 AM88 °FPassing clouds.6 mph17%29.92 "HgN/A
10:00 AM86 °FPassing clouds.6 mph19%29.92 "HgN/A
9:30 AM82 °FPassing clouds.5 mph25%29.92 "HgN/A
9:00 AM79 °FPassing clouds.5 mph32%29.92 "HgN/A
8:30 AM77 °FPassing clouds.5 mph34%29.92 "HgN/A
8:00 AM73 °FSunny.2 mph47%29.89 "Hg10 mi
7:30 AM72 °FSunny.No wind50%29.89 "Hg10 mi
7:00 AM68 °FSunny.No wind60%29.89 "Hg10 mi
6:30 AM64 °FSunny.2 mph68%29.89 "Hg10 mi
5:30 AM61 °FSunny.5 mph72%29.86 "Hg10 mi
4:30 AM63 °FClear.1 mph64%29.83 "Hg10 mi
4:00 AM64 °FClear.6 mph46%29.83 "Hg10 mi
Weather by CustomWeather, © 2016

See weather overviewHow to use our weather pages